• In Belarus
  • List of Countries
  • For 7 days
  • Water Temperature
  • Satellite Maps
  • Weather Map
  • Weather Widgets
  • user-avatar
    Login

    Hourly Weather Korzhavino

    Today, 22 June, Friday

    Time Temperature Precipitation Wind Pressure Humidity
    00:00 +15°C° 0 mm 2 mps 745 mmHg 91%
    01:00 +15°C° 0 mm 2 mps 745 mmHg 92%
    02:00 +14°C° 0 mm 2 mps 745 mmHg 94%
    03:00 +14°C° 0 mm 2 mps 745 mmHg 95%
    04:00 +14°C° 0 mm 3 mps 744 mmHg 91%
    05:00 +16°C° 0 mm 3 mps 744 mmHg 88%
    06:00 +17°C° 0 mm 3 mps 744 mmHg 84%
    07:00 +19°C° 0 mm 4 mps 744 mmHg 77%
    08:00 +21°C° 0 mm 4 mps 744 mmHg 70%
    09:00 +23°C° 0 mm 5 mps 743 mmHg 63%
    10:00 +25°C° 0 mm 5 mps 743 mmHg 59%
    11:00 +26°C° 0 mm 5 mps 743 mmHg 55%
    12:00 +28°C° 0 mm 6 mps 743 mmHg 52%
    13:00 +28°C° 0.2 mm 5 mps 742 mmHg 55%
    14:00 +28°C° 0.2 mm 5 mps 742 mmHg 58%
    15:00 +28°C° 0.2 mm 5 mps 742 mmHg 62%
    16:00 +27°C° 1.1 mm 4 mps 742 mmHg 70%
    17:00 +25°C° 1.1 mm 4 mps 742 mmHg 78%
    18:00 +23°C° 1.1 mm 4 mps 742 mmHg 86%
    19:00 +22°C° 0.7 mm 3 mps 742 mmHg 89%
    20:00 +21°C° 0.7 mm 3 mps 742 mmHg 92%
    21:00 +20°C° 0.7 mm 3 mps 742 mmHg 95%
    22:00 +20°C° 0.2 mm 2 mps 743 mmHg 95%
    23:00 +19°C° 0.2 mm 2 mps 743 mmHg 96%

    Tomorrow, 23 June, Saturday

    Time Temperature Precipitation Wind Pressure Humidity
    00:00 +18°C° 0.2 mm 2 mps 743 mmHg 97%
    01:00 +17°C° 0.1 mm 2 mps 743 mmHg 97%
    02:00 +16°C° 0.1 mm 2 mps 744 mmHg 97%
    03:00 +16°C° 0.1 mm 2 mps 744 mmHg 96%
    04:00 +16°C° 0 mm 2 mps 744 mmHg 95%
    05:00 +16°C° 0 mm 2 mps 745 mmHg 93%
    06:00 +16°C° 0 mm 2 mps 745 mmHg 92%
    07:00 +17°C° 0 mm 2 mps 745 mmHg 85%
    08:00 +19°C° 0 mm 2 mps 745 mmHg 77%
    09:00 +20°C° 0 mm 2 mps 745 mmHg 70%
    10:00 +20°C° 0.1 mm 2 mps 745 mmHg 70%
    11:00 +21°C° 0.1 mm 2 mps 745 mmHg 70%
    12:00 +23°C° 0.1 mm 2 mps 745 mmHg 70%
    13:00 +23°C° 0.3 mm 2 mps 745 mmHg 72%
    14:00 +23°C° 0.3 mm 2 mps 744 mmHg 74%
    15:00 +23°C° 0.3 mm 2 mps 744 mmHg 77%
    16:00 +24°C° 0.6 mm 2 mps 744 mmHg 79%
    17:00 +24°C° 0.6 mm 2 mps 743 mmHg 82%
    18:00 +24°C° 0.6 mm 2 mps 743 mmHg 85%
    19:00 +23°C° 0.6 mm 2 mps 743 mmHg 87%
    20:00 +21°C° 0.6 mm 2 mps 743 mmHg 89%
    21:00 +20°C° 0.6 mm 2 mps 743 mmHg 91%
    22:00 +20°C° 0.3 mm 3 mps 742 mmHg 92%
    23:00 +19°C° 0.3 mm 3 mps 742 mmHg 93%

    Day after tomorrow, 24 June, Sunday

    Time Temperature Precipitation Wind Pressure Humidity
    00:00 +19°C° 0.3 mm 3 mps 742 mmHg 94%
    01:00 +19°C° 0.2 mm 3 mps 741 mmHg 94%
    02:00 +19°C° 0.2 mm 3 mps 741 mmHg 94%
    03:00 +19°C° 0.2 mm 4 mps 741 mmHg 94%
    04:00 +19°C° 0.2 mm 4 mps 741 mmHg 93%
    05:00 +20°C° 0.2 mm 4 mps 741 mmHg 92%
    06:00 +20°C° 0.2 mm 5 mps 741 mmHg 91%
    07:00 +21°C° 0 mm 5 mps 741 mmHg 85%
    08:00 +22°C° 0 mm 5 mps 741 mmHg 80%
    09:00 +23°C° 0 mm 5 mps 741 mmHg 75%
    10:00 +25°C° 0.6 mm 5 mps 741 mmHg 74%
    11:00 +26°C° 0.6 mm 5 mps 741 mmHg 74%
    12:00 +26°C° 0.6 mm 5 mps 741 mmHg 74%
    13:00 +26°C° 0.9 mm 5 mps 741 mmHg 74%
    14:00 +26°C° 0.9 mm 5 mps 742 mmHg 74%
    15:00 +26°C° 0.9 mm 5 mps 742 mmHg 74%
    16:00 +23°C° 0.9 mm 5 mps 742 mmHg 79%
    17:00 +22°C° 0.9 mm 5 mps 742 mmHg 83%
    18:00 +20°C° 0.9 mm 5 mps 743 mmHg 87%
    19:00 +17°C° 0 mm 5 mps 744 mmHg 86%
    20:00 +17°C° 0 mm 4 mps 744 mmHg 86%
    21:00 +14°C° 0 mm 3 mps 745 mmHg 85%
    22:00 +13°C° 0 mm 3 mps 746 mmHg 86%
    23:00 +12°C° 0 mm 3 mps 746 mmHg 88%

    25 June, Monday

    Time Temperature Precipitation Wind Pressure Humidity
    00:00 +10°C° 0 mm 3 mps 747 mmHg 89%
    01:00 +10°C° 0 mm 3 mps 747 mmHg 91%
    02:00 +9°C° 0 mm 3 mps 748 mmHg 93%
    03:00 +9°C° 0 mm 2 mps 748 mmHg 94%
    04:00 +10°C° 0 mm 2 mps 748 mmHg 92%
    05:00 +10°C° 0 mm 2 mps 749 mmHg 90%
    06:00 +12°C° 0 mm 2 mps 749 mmHg 87%
    07:00 +14°C° 0 mm 2 mps 749 mmHg 80%
    08:00 +16°C° 0 mm 2 mps 750 mmHg 73%
    09:00 +17°C° 0 mm 2 mps 750 mmHg 65%
    10:00 +19°C° 0 mm 2 mps 750 mmHg 61%
    11:00 +20°C° 0 mm 2 mps 750 mmHg 57%
    12:00 +21°C° 0 mm 2 mps 750 mmHg 52%
    13:00 +23°C° 0 mm 2 mps 750 mmHg 51%
    14:00 +23°C° 0 mm 2 mps 750 mmHg 50%
    15:00 +24°C° 0 mm 2 mps 750 mmHg 48%
    16:00 +24°C° 0 mm 2 mps 750 mmHg 52%
    17:00 +23°C° 0 mm 1 mps 750 mmHg 55%
    18:00 +23°C° 0 mm 1 mps 750 mmHg 59%
    19:00 +22°C° 0.1 mm 1 mps 750 mmHg 65%
    20:00 +20°C° 0.1 mm 1 mps 750 mmHg 71%
    21:00 +18°C° 0.1 mm 1 mps 750 mmHg 76%
    22:00 +16°C° 0 mm 1 mps 751 mmHg 80%
    23:00 +15°C° 0 mm 1 mps 751 mmHg 83%

    26 June, Tuesday

    Time Temperature Precipitation Wind Pressure Humidity
    00:00 +14°C° 0 mm 1 mps 751 mmHg 87%
    01:00 +14°C° 0 mm 1 mps 751 mmHg 88%
    02:00 +13°C° 0 mm 1 mps 751 mmHg 89%
    03:00 +13°C° 0 mm 1 mps 751 mmHg 90%
    04:00 +14°C° 0 mm 1 mps 751 mmHg 89%
    05:00 +14°C° 0 mm 1 mps 751 mmHg 88%
    06:00 +15°C° 0 mm 1 mps 752 mmHg 86%
    07:00 +18°C° 0 mm 1 mps 752 mmHg 79%
    08:00 +20°C° 0 mm 1 mps 752 mmHg 72%
    09:00 +22°C° 0 mm 1 mps 752 mmHg 65%
    10:00 +23°C° 0 mm 2 mps 752 mmHg 60%
    11:00 +24°C° 0 mm 2 mps 752 mmHg 55%
    12:00 +25°C° 0 mm 2 mps 752 mmHg 50%
    13:00 +25°C° 0 mm 2 mps 752 mmHg 48%
    14:00 +26°C° 0 mm 2 mps 752 mmHg 47%
    15:00 +26°C° 0 mm 2 mps 751 mmHg 45%
    16:00 +25°C° 0 mm 1 mps 752 mmHg 50%
    17:00 +25°C° 0 mm 1 mps 752 mmHg 55%
    18:00 +24°C° 0 mm 1 mps 752 mmHg 60%
    19:00 +22°C° 0 mm 1 mps 752 mmHg 65%
    20:00 +21°C° 0 mm 1 mps 752 mmHg 69%
    21:00 +19°C° 0 mm 1 mps 752 mmHg 74%
    22:00 +18°C° 0 mm 1 mps 752 mmHg 77%
    23:00 +16°C° 0 mm 1 mps 752 mmHg 80%

    27 June, Wednesday

    Time Temperature Precipitation Wind Pressure Humidity
    00:00 +15°C° 0 mm 1 mps 752 mmHg 84%
    01:00 +15°C° 0 mm 1 mps 752 mmHg 85%
    02:00 +13°C° 0 mm 0 mps 752 mmHg 87%
    03:00 +13°C° 0 mm 0 mps 752 mmHg 89%
    04:00 +14°C° 0 mm 0 mps 752 mmHg 87%
    05:00 +15°C° 0 mm 0 mps 752 mmHg 84%
    06:00 +16°C° 0 mm 0 mps 753 mmHg 82%
    07:00 +20°C° 0 mm 1 mps 753 mmHg 75%
    08:00 +22°C° 0 mm 1 mps 753 mmHg 69%
    09:00 +24°C° 0 mm 1 mps 753 mmHg 62%
    10:00 +25°C° 0 mm 1 mps 753 mmHg 58%
    11:00 +26°C° 0 mm 2 mps 753 mmHg 54%
    12:00 +27°C° 0 mm 2 mps 752 mmHg 50%
    13:00 +27°C° 0.1 mm 2 mps 752 mmHg 51%
    14:00 +27°C° 0.1 mm 1 mps 752 mmHg 51%
    15:00 +27°C° 0.1 mm 1 mps 752 mmHg 52%
    16:00 +27°C° 0 mm 1 mps 752 mmHg 54%
    17:00 +27°C° 0 mm 1 mps 752 mmHg 56%
    18:00 +26°C° 0 mm 2 mps 751 mmHg 58%
    19:00 +25°C° 0 mm 2 mps 751 mmHg 63%
    20:00 +23°C° 0 mm 2 mps 752 mmHg 69%
    21:00 +20°C° 0 mm 2 mps 752 mmHg 75%
    22:00 +20°C° 0 mm 2 mps 752 mmHg 74%
    23:00 +19°C° 0 mm 2 mps 752 mmHg 73%
    Show more